| time (UTC) | temp C | wind direction | speed KPH | gust KPH | rain 1hr cm | rain 24hr cm | rain mn cm | humidity % | barometer mb |
| 20260504030948 | 5 | 184 | 1.6 | 1.6 | 0.00 | 0.00 | 0.00 | 79 | 1014.5 |
| 20260504030445 | 5 | 190 | 0.0 | 0.0 | 0.00 | 0.00 | 0.00 | 79 | 1014.4 |
| 20260504025940 | 5 | 193 | 0.0 | 0.0 | 0.00 | 0.00 | 0.00 | 80 | 1014.6 |
| 20260504025437 | 6 | 188 | 1.6 | 1.6 | 0.00 | 0.00 | 0.00 | 79 | 1014.5 |
| 20260504024935 | 6 | 176 | 0.0 | 1.6 | 0.00 | 0.00 | 0.00 | 78 | 1014.6 |
| 20260504024432 | 6 | 188 | 0.0 | 1.6 | 0.00 | 0.00 | 0.00 | 78 | 1014.6 |
| 20260504023929 | 6 | 194 | 0.0 | 1.6 | 0.00 | 0.00 | 0.00 | 76 | 1014.7 |
| 20260504023425 | 6 | 184 | 0.0 | 0.0 | 0.00 | 0.00 | 0.00 | 76 | 1014.5 |
| 20260504022921 | 6 | 194 | 0.0 | 0.0 | 0.00 | 0.00 | 0.00 | 75 | 1014.6 |
| 20260504022417 | 6 | 197 | 0.0 | 0.0 | 0.00 | 0.00 | 0.00 | 74 | 1014.6 |
| 20260504021914 | 6 | 196 | 0.0 | 1.6 | 0.00 | 0.00 | 0.00 | 75 | 1014.6 |
| 20260504021411 | 6 | 185 | 1.6 | 1.6 | 0.00 | 0.00 | 0.00 | 75 | 1014.7 |
| 20260504020909 | 7 | 196 | 0.0 | 0.0 | 0.00 | 0.00 | 0.00 | 74 | 1014.7 |
| 20260504020405 | 7 | 194 | 0.0 | 1.6 | 0.00 | 0.00 | 0.00 | 72 | 1014.7 |
| 20260504015901 | 7 | 183 | 1.6 | 1.6 | 0.00 | 0.00 | 0.00 | 73 | 1014.8 |
| 20260504015357 | 7 | 191 | 1.6 | 1.6 | 0.00 | 0.00 | 0.00 | 73 | 1014.6 |
| 20260504014853 | 7 | 192 | 1.6 | 1.6 | 0.00 | 0.00 | 0.00 | 73 | 1014.6 |
| 20260504014350 | 7 | 198 | 0.0 | 0.0 | 0.00 | 0.00 | 0.00 | 72 | 1014.6 |
| 20260504013847 | 8 | 200 | 0.0 | 0.0 | 0.00 | 0.00 | 0.00 | 67 | 1014.6 |
| 20260504013345 | 8 | 199 | 0.0 | 0.0 | 0.00 | 0.00 | 0.00 | 63 | 1014.6 |
| 20260504012841 | 8 | 200 | 0.0 | 0.0 | 0.00 | 0.00 | 0.00 | 61 | 1014.3 |
| 20260504012339 | 9 | 198 | 0.0 | 0.0 | 0.00 | 0.00 | 0.00 | 59 | 1014.4 |
| 20260504011837 | 10 | 197 | 0.0 | 0.0 | 0.00 | 0.00 | 0.00 | 58 | 1014.3 |
| 20260504011333 | 10 | 198 | 0.0 | 0.0 | 0.00 | 0.00 | 0.00 | 55 | 1014.3 |
| 20260504010829 | 10 | 184 | 0.0 | 1.6 | 0.00 | 0.00 | 0.00 | 55 | 1014.3 |
| 20260504010325 | 10 | 197 | 0.0 | 0.0 | 0.00 | 0.00 | 0.00 | 53 | 1014.3 |
| 20260504005821 | 11 | 189 | 0.0 | 0.0 | 0.00 | 0.00 | 0.00 | 52 | 1014.4 |
| 20260504005318 | 11 | 190 | 0.0 | 1.6 | 0.00 | 0.00 | 0.00 | 52 | 1014.5 |
| 20260504004816 | 11 | 189 | 0.0 | 1.6 | 0.00 | 0.00 | 0.00 | 51 | 1014.3 |
| 20260504004314 | 11 | 192 | 0.0 | 0.0 | 0.00 | 0.00 | 0.00 | 51 | 1014.4 |
| 20260504003810 | 11 | 199 | 0.0 | 0.0 | 0.00 | 0.00 | 0.00 | 50 | 1014.5 |
| 20260504003307 | 11 | 199 | 0.0 | 0.0 | 0.00 | 0.00 | 0.00 | 49 | 1014.3 |
| 20260504002803 | 11 | 199 | 0.0 | 0.0 | 0.00 | 0.00 | 0.00 | 50 | 1014.4 |
| 20260504002300 | 11 | 190 | 0.0 | 1.6 | 0.00 | 0.00 | 0.00 | 48 | 1014.4 |
| 20260504001758 | 12 | 199 | 0.0 | 0.0 | 0.00 | 0.00 | 0.00 | 48 | 1014.4 |
| 20260504001255 | 12 | 194 | 1.6 | 3.2 | 0.00 | 0.00 | 0.00 | 46 | 1014.3 |
| 20260504000752 | 12 | 201 | 0.0 | 1.6 | 0.00 | 0.00 | 0.00 | 47 | 1014.3 |
| 20260504000248 | 12 | 199 | 0.0 | 0.0 | 0.00 | 0.00 | 0.00 | 47 | 1014.3 |
| 20260503235747 | 12 | 204 | 0.0 | 0.0 | 0.00 | 0.00 | 0.00 | 45 | 1014.3 |
| 20260503235243 | 13 | 196 | 0.0 | 0.0 | 0.00 | 0.00 | 0.00 | 45 | 1014.4 |
| 20260503234741 | 13 | 201 | 0.0 | 0.0 | 0.00 | 0.00 | 0.00 | 45 | 1014.4 |
| 20260503234239 | 13 | 211 | 1.6 | 1.6 | 0.00 | 0.00 | 0.00 | 43 | 1014.4 |
| 20260503233736 | 13 | 235 | 1.6 | 3.2 | 0.00 | 0.00 | 0.00 | 42 | 1014.4 |
| 20260503233232 | 13 | 214 | 1.6 | 1.6 | 0.00 | 0.00 | 0.00 | 43 | 1014.6 |
| 20260503232729 | 13 | 250 | 1.6 | 9.7 | 0.00 | 0.00 | 0.00 | 43 | 1014.6 |
| 20260503232226 | 14 | 209 | 1.6 | 1.6 | 0.00 | 0.00 | 0.00 | 42 | 1014.6 |
| 20260503231724 | 15 | 236 | 1.6 | 3.2 | 0.00 | 0.00 | 0.00 | 41 | 1014.6 |
| 20260503231220 | 15 | 213 | 1.6 | 1.6 | 0.00 | 0.00 | 0.00 | 41 | 1014.6 |
| 20260503230717 | 15 | 201 | 0.0 | 1.6 | 0.00 | 0.00 | 0.00 | 40 | 1014.6 |
| 20260503230214 | 15 | 222 | 1.6 | 1.6 | 0.00 | 0.00 | 0.00 | 41 | 1014.6 |
| 20260503225711 | 15 | 200 | 0.0 | 0.0 | 0.00 | 0.00 | 0.00 | 42 | 1014.5 |
| 20260503225206 | 14 | 219 | 1.6 | 1.6 | 0.00 | 0.00 | 0.00 | 42 | 1014.5 |
| 20260503224703 | 15 | 225 | 3.2 | 4.8 | 0.00 | 0.00 | 0.00 | 40 | 1014.6 |
| 20260503224201 | 15 | 263 | 4.8 | 8.0 | 0.00 | 0.00 | 0.00 | 40 | 1014.6 |
| 20260503223658 | 15 | 201 | 0.0 | 0.0 | 0.00 | 0.00 | 0.00 | 41 | 1014.7 |
| 20260503223155 | 16 | 202 | 3.2 | 8.0 | 0.00 | 0.00 | 0.00 | 38 | 1014.8 |
| 20260503222652 | 16 | 218 | 1.6 | 1.6 | 0.00 | 0.00 | 0.00 | 37 | 1014.8 |
| 20260503222150 | 16 | 187 | 1.6 | 3.2 | 0.00 | 0.00 | 0.00 | 39 | 1014.4 |
| 20260503221648 | 15 | 257 | 1.6 | 3.2 | 0.00 | 0.00 | 0.00 | 41 | 1014.7 |
| 20260503221145 | 15 | 223 | 1.6 | 1.6 | 0.00 | 0.00 | 0.00 | 41 | 1014.8 |
| 20260503220642 | 15 | 186 | 1.6 | 1.6 | 0.00 | 0.00 | 0.00 | 39 | 1014.8 |
| 20260503220138 | 15 | 230 | 4.8 | 4.8 | 0.00 | 0.00 | 0.00 | 39 | 1014.7 |
| 20260503215636 | 16 | 214 | 1.6 | 1.6 | 0.00 | 0.00 | 0.00 | 38 | 1014.8 |
| 20260503215132 | 15 | 288 | 1.6 | 3.2 | 0.00 | 0.00 | 0.00 | 39 | 1014.7 |
| 20260503214631 | 16 | 213 | 4.8 | 8.0 | 0.00 | 0.00 | 0.00 | 39 | 1014.6 |
| 20260503214126 | 15 | 206 | 1.6 | 1.6 | 0.00 | 0.00 | 0.00 | 39 | 1014.5 |
| 20260503213626 | 15 | 217 | 1.6 | 1.6 | 0.00 | 0.00 | 0.00 | 40 | 1014.4 |
| 20260503213122 | 15 | 298 | 4.8 | 4.8 | 0.00 | 0.00 | 0.00 | 40 | 1014.1 |
| 20260503212620 | 15 | 203 | 1.6 | 3.2 | 0.00 | 0.00 | 0.00 | 40 | 1014.5 |
| 20260503212117 | 15 | 231 | 1.6 | 1.6 | 0.00 | 0.00 | 0.00 | 40 | 1014.4 |
| 20260503211614 | 15 | 175 | 0.0 | 1.6 | 0.00 | 0.00 | 0.00 | 40 | 1014.5 |
| 20260503211110 | 14 | 167 | 1.6 | 1.6 | 0.00 | 0.00 | 0.00 | 40 | 1014.7 |
| 20260503210607 | 14 | 189 | 3.2 | 3.2 | 0.00 | 0.00 | 0.00 | 40 | 1014.5 |
| 20260503205559 | 15 | 196 | 1.6 | 3.2 | 0.00 | 0.00 | 0.00 | 40 | 1014.9 |
| 20260503205055 | 15 | 198 | 1.6 | 3.2 | 0.00 | 0.00 | 0.00 | 38 | 1014.7 |
| 20260503204552 | 15 | 212 | 1.6 | 3.2 | 0.00 | 0.00 | 0.00 | 39 | 1015.0 |
| 20260503204049 | 16 | 223 | 4.8 | 4.8 | 0.00 | 0.00 | 0.00 | 38 | 1014.9 |
| 20260503203546 | 15 | 279 | 3.2 | 4.8 | 0.00 | 0.00 | 0.00 | 39 | 1014.8 |
| 20260503203044 | 16 | 184 | 1.6 | 3.2 | 0.00 | 0.00 | 0.00 | 37 | 1014.9 |
| 20260503202542 | 15 | 205 | 3.2 | 3.2 | 0.00 | 0.00 | 0.00 | 39 | 1014.8 |
| 20260503202039 | 15 | 217 | 4.8 | 4.8 | 0.00 | 0.00 | 0.00 | 38 | 1015.0 |
| 20260503201537 | 16 | 185 | 4.8 | 4.8 | 0.00 | 0.00 | 0.00 | 37 | 1015.0 |
| 20260503201034 | 16 | 231 | 3.2 | 3.2 | 0.00 | 0.00 | 0.00 | 38 | 1014.8 |
| 20260503200530 | 15 | 291 | 4.8 | 8.0 | 0.00 | 0.00 | 0.00 | 40 | 1015.1 |
| 20260503200027 | 15 | 207 | 1.6 | 3.2 | 0.00 | 0.00 | 0.00 | 40 | 1015.0 |
| 20260503195524 | 15 | 201 | 1.6 | 1.6 | 0.00 | 0.00 | 0.00 | 38 | 1015.3 |
| 20260503195021 | 15 | 259 | 3.2 | 3.2 | 0.00 | 0.00 | 0.00 | 39 | 1015.1 |
| 20260503194518 | 14 | 278 | 4.8 | 4.8 | 0.00 | 0.00 | 0.00 | 43 | 1015.3 |
| 20260503194018 | 15 | 206 | 0.0 | 1.6 | 0.00 | 0.00 | 0.00 | 42 | 1015.3 |
| 20260503193515 | 15 | 156 | 4.8 | 8.0 | 0.00 | 0.00 | 0.00 | 39 | 1015.7 |
| 20260503193010 | 15 | 203 | 1.6 | 1.6 | 0.00 | 0.00 | 0.00 | 39 | 1015.7 |
| 20260503192506 | 15 | 186 | 6.4 | 9.7 | 0.00 | 0.00 | 0.00 | 39 | 1015.5 |
| 20260503192002 | 16 | 212 | 1.6 | 1.6 | 0.00 | 0.00 | 0.00 | 39 | 1015.8 |
| 20260503191459 | 15 | 197 | 4.8 | 4.8 | 0.00 | 0.00 | 0.00 | 39 | 1015.6 |
| 20260503190955 | 14 | 208 | 1.6 | 3.2 | 0.00 | 0.00 | 0.00 | 43 | 1015.7 |
| 20260503190453 | 15 | 210 | 1.6 | 3.2 | 0.00 | 0.00 | 0.00 | 42 | 1015.7 |
| 20260503185950 | 14 | 238 | 1.6 | 3.2 | 0.00 | 0.00 | 0.00 | 40 | 1015.8 |
| 20260503185446 | 15 | 259 | 6.4 | 9.7 | 0.00 | 0.00 | 0.00 | 40 | 1015.8 |
| 20260503184946 | 15 | 334 | 6.4 | 12.9 | 0.00 | 0.00 | 0.00 | 40 | 1016.1 |
| 20260503184443 | 14 | 210 | 4.8 | 8.0 | 0.00 | 0.00 | 0.00 | 41 | 1016.3 |
| 20260503183939 | 15 | 228 | 4.8 | 4.8 | 0.00 | 0.00 | 0.00 | 41 | 1016.1 |
| 20260503183436 | 14 | 210 | 1.6 | 3.2 | 0.00 | 0.00 | 0.00 | 43 | 1016.3 |
| 20260503182933 | 15 | 332 | 8.0 | 9.7 | 0.00 | 0.00 | 0.00 | 40 | 1016.5 |
| 20260503182432 | 15 | 307 | 4.8 | 9.7 | 0.00 | 0.00 | 0.00 | 41 | 1016.2 |
| 20260503181929 | 15 | 199 | 1.6 | 3.2 | 0.00 | 0.00 | 0.00 | 37 | 1016.4 |
| 20260503181426 | 15 | 210 | 6.4 | 8.0 | 0.00 | 0.00 | 0.00 | 39 | 1016.5 |
| 20260503180921 | 14 | 178 | 1.6 | 4.8 | 0.00 | 0.00 | 0.00 | 41 | 1016.3 |
| 20260503180420 | 14 | 191 | 1.6 | 3.2 | 0.00 | 0.00 | 0.00 | 41 | 1016.7 |
| 20260503175916 | 15 | 214 | 8.0 | 16.1 | 0.00 | 0.00 | 0.00 | 40 | 1016.6 |
| 20260503175415 | 14 | 217 | 4.8 | 9.7 | 0.00 | 0.00 | 0.00 | 41 | 1016.8 |
| 20260503174910 | 13 | 149 | 4.8 | 4.8 | 0.00 | 0.00 | 0.00 | 41 | 1016.6 |
| 20260503174408 | 13 | 189 | 1.6 | 3.2 | 0.00 | 0.00 | 0.00 | 40 | 1016.7 |
| 20260503173903 | 13 | 238 | 1.6 | 1.6 | 0.00 | 0.00 | 0.00 | 41 | 1016.7 |
| 20260503173359 | 13 | 256 | 3.2 | 3.2 | 0.00 | 0.00 | 0.00 | 43 | 1016.7 |
| 20260503172856 | 13 | 237 | 8.0 | 12.9 | 0.00 | 0.00 | 0.00 | 39 | 1017.0 |
| 20260503172354 | 13 | 204 | 1.6 | 3.2 | 0.00 | 0.00 | 0.00 | 44 | 1017.2 |
| 20260503171849 | 13 | 189 | 3.2 | 4.8 | 0.00 | 0.00 | 0.00 | 40 | 1017.2 |
| 20260503171346 | 12 | 294 | 4.8 | 9.7 | 0.00 | 0.00 | 0.00 | 41 | 1017.2 |
| 20260503170844 | 13 | 196 | 3.2 | 4.8 | 0.00 | 0.00 | 0.00 | 40 | 1017.0 |
| 20260503170340 | 12 | 255 | 4.8 | 8.0 | 0.00 | 0.00 | 0.00 | 42 | 1017.1 |
| 20260503150732 | 11 | 174 | 1.6 | 1.6 | 0.00 | 0.00 | 0.00 | 49 | 1017.9 |
| 20260503150229 | 11 | 191 | 1.6 | 1.6 | 0.00 | 0.00 | 0.00 | 52 | 1018.1 |
| 20260503140153 | 10 | 200 | 3.2 | 4.8 | 0.00 | 0.00 | 0.00 | 58 | 1018.3 |
| 20260503131123 | 7 | 195 | 0.0 | 0.0 | 0.00 | 0.00 | 0.00 | 69 | 1018.2 |
| 20260503130620 | 7 | 199 | 1.6 | 1.6 | 0.00 | 0.00 | 0.00 | 72 | 1018.3 |
| 20260503130118 | 7 | 194 | 3.2 | 3.2 | 0.00 | 0.00 | 0.00 | 71 | 1018.4 |
| 20260503110510 | -1 | 193 | 0.0 | 0.0 | 0.00 | 0.00 | 0.00 | 99 | 1017.9 |
| 20260503090402 | -1 | 200 | 0.0 | 0.0 | 0.00 | 0.00 | 0.00 | 99 | 1017.0 |
| 20260503081329 | 0 | 199 | 0.0 | 0.0 | 0.00 | 0.00 | 0.00 | 98 | 1017.0 |
| 20260503080826 | 0 | 199 | 0.0 | 0.0 | 0.00 | 0.00 | 0.00 | 98 | 1016.9 |
| 20260503080323 | 0 | 199 | 0.0 | 0.0 | 0.00 | 0.00 | 0.00 | 98 | 1016.9 |
| 20260503072759 | 0 | 200 | 0.0 | 0.0 | 0.00 | 0.00 | 0.00 | 96 | 1016.8 |
| 20260503072256 | 0 | 199 | 0.0 | 0.0 | 0.00 | 0.00 | 0.00 | 97 | 1016.8 |
| 20260503071752 | 1 | 196 | 0.0 | 0.0 | 0.00 | 0.00 | 0.00 | 97 | 1016.7 |
| 20260503071249 | 1 | 204 | 0.0 | 0.0 | 0.00 | 0.00 | 0.00 | 97 | 1016.6 |
| 20260503070746 | 1 | 208 | 0.0 | 0.0 | 0.00 | 0.00 | 0.00 | 97 | 1016.6 |
| 20260503070244 | 1 | 198 | 0.0 | 0.0 | 0.00 | 0.00 | 0.00 | 96 | 1016.6 |
| 20260503060203 | 1 | 200 | 0.0 | 0.0 | 0.00 | 0.00 | 0.00 | 96 | 1016.8 |
| 20260503054650 | 1 | 204 | 0.0 | 0.0 | 0.00 | 0.00 | 0.00 | 95 | 1016.7 |
| 20260503054147 | 1 | 204 | 0.0 | 0.0 | 0.00 | 0.00 | 0.00 | 95 | 1016.7 |
| 20260503053645 | 1 | 200 | 0.0 | 0.0 | 0.00 | 0.00 | 0.00 | 95 | 1016.8 |
| 20260503053143 | 1 | 200 | 0.0 | 0.0 | 0.00 | 0.00 | 0.00 | 94 | 1016.7 |
| 20260503052639 | 1 | 200 | 0.0 | 0.0 | 0.00 | 0.00 | 0.00 | 94 | 1016.8 |
| 20260503052136 | 1 | 200 | 0.0 | 0.0 | 0.00 | 0.00 | 0.00 | 94 | 1016.9 |
| 20260503051631 | 1 | 202 | 0.0 | 0.0 | 0.00 | 0.00 | 0.00 | 94 | 1017.0 |
| 20260503051129 | 1 | 200 | 0.0 | 0.0 | 0.00 | 0.00 | 0.00 | 93 | 1016.7 |
| 20260503050626 | 1 | 195 | 0.0 | 0.0 | 0.00 | 0.00 | 0.00 | 93 | 1016.7 |
| 20260503050122 | 1 | 204 | 0.0 | 0.0 | 0.00 | 0.00 | 0.00 | 92 | 1017.1 |
| 20260503045620 | 1 | 199 | 0.0 | 0.0 | 0.00 | 0.00 | 0.00 | 92 | 1017.2 |
| 20260503045117 | 1 | 199 | 0.0 | 0.0 | 0.00 | 0.00 | 0.00 | 91 | 1017.0 |
| 20260503044613 | 1 | 192 | 0.0 | 1.6 | 0.00 | 0.00 | 0.00 | 92 | 1016.9 |
| 20260503044111 | 1 | 200 | 0.0 | 0.0 | 0.00 | 0.00 | 0.00 | 91 | 1017.2 |
| 20260503043607 | 1 | 197 | 0.0 | 0.0 | 0.00 | 0.00 | 0.00 | 91 | 1017.2 |
| 20260503043104 | 1 | 198 | 0.0 | 0.0 | 0.00 | 0.00 | 0.00 | 91 | 1017.1 |
| 20260503042601 | 2 | 196 | 0.0 | 0.0 | 0.00 | 0.00 | 0.00 | 91 | 1017.0 |
| 20260503042057 | 2 | 195 | 0.0 | 0.0 | 0.00 | 0.00 | 0.00 | 91 | 1017.0 |
| 20260503041553 | 1 | 198 | 0.0 | 0.0 | 0.00 | 0.00 | 0.00 | 91 | 1017.0 |
| 20260503041052 | 2 | 199 | 0.0 | 0.0 | 0.00 | 0.00 | 0.00 | 90 | 1017.0 |
| 20260503040548 | 2 | 199 | 0.0 | 0.0 | 0.00 | 0.00 | 0.00 | 89 | 1017.0 |
| 20260503040046 | 2 | 193 | 0.0 | 0.0 | 0.00 | 0.00 | 0.00 | 88 | 1017.1 |
| 20260503035542 | 2 | 202 | 0.0 | 0.0 | 0.00 | 0.00 | 0.00 | 87 | 1017.0 |
| 20260503035040 | 3 | 200 | 0.0 | 0.0 | 0.00 | 0.00 | 0.00 | 87 | 1017.2 |
| 20260503034537 | 3 | 200 | 0.0 | 0.0 | 0.00 | 0.00 | 0.00 | 86 | 1016.9 |
| 20260503034034 | 3 | 199 | 0.0 | 0.0 | 0.00 | 0.00 | 0.00 | 85 | 1017.1 |
| 20260503033531 | 2 | 200 | 0.0 | 0.0 | 0.00 | 0.00 | 0.00 | 85 | 1016.9 |
| 20260503033029 | 2 | 197 | 0.0 | 0.0 | 0.00 | 0.00 | 0.00 | 85 | 1017.1 |
| 20260503032527 | 3 | 196 | 0.0 | 0.0 | 0.00 | 0.00 | 0.00 | 85 | 1017.0 |
| 20260503032025 | 3 | 199 | 0.0 | 0.0 | 0.00 | 0.00 | 0.00 | 84 | 1016.9 |
| 20260503031523 | 3 | 198 | 0.0 | 0.0 | 0.00 | 0.00 | 0.00 | 83 | 1017.1 |